Flag for Germany Weather past 2 weeks in Bayreuth, Bavaria, Germany

Now
61 °F

Overcast.


Feels Like: 61 °F
Forecast: 45 / 67 °F
Wind: 9 mph from Northwest

Location: Grafenwoehr

Current Time: Jul 29, 2015 at 2:39:42 PM

Latest Report: Jul 29, 2015 at 1:58 PM


Visibility: N/A

Pressure: 29.79 "Hg

Humidity: 68%

Dew point: 50 °F

Location of BayreuthLocation

Historic Weather in Bayreuth — Graph

°F

Bayreuth temperature yesterday

Maximum temperature yesterday: 70 °F (at 3:01 PM)
Minimum temperature yesterday: 57 °F (at 2:58 AM)
Average temperature yesterday: 63 °F

Past Weeks' High & Low Weather Summary

 TemperatureHumidityPressure
High97 °F (Jul 22, 4:58 PM)100% (Jul 23, 1:58 AM)30.11 "Hg (Jul 23, 1:58 AM)
Low52 °F (Jul 26, 4:58 AM)20% (Jul 17, 2:58 PM)29.63 "Hg (Jul 25, 3:58 AM)
Average69 °F65%29.91 "Hg
* Reported Jul 14 12:58 PM — Jul 29 12:59 PM, Bayreuth, Weather by CustomWeather, © 2015

Note: Actual official high and low records may vary slightly from our data, if they occured in-between our weather recording intervals... More about our weather records

Advertising

Bayreuth weather history for previous 24 hours

 ConditionsComfort  
Time TempWeatherWind HumidityBarometerVisibility
12:59 PM
Wed, Jul 29
63 °FCloudy.8 mph59%29.80 "HgN/A
11:58 AM61 °FOvercast.7 mph63%29.79 "HgN/A
10:58 AM61 °FPartly sunny.9 mph63%29.81 "HgN/A
9:58 AM57 °FMore clouds than sun.7 mph77%29.83 "HgN/A
8:58 AM57 °FMore clouds than sun.8 mph72%29.83 "HgN/A
7:58 AM55 °FOvercast.8 mph77%29.84 "HgN/A
6:58 AM54 °FMore clouds than sun.6 mph82%29.85 "HgN/A
5:58 AM54 °FMostly cloudy.3 mph82%29.85 "HgN/A
4:58 AM54 °FOvercast.6 mph82%29.85 "HgN/A
3:58 AM54 °FOvercast.3 mph82%29.85 "HgN/A
2:58 AM54 °FPassing clouds.3 mph88%29.86 "HgN/A
1:58 AM55 °FLight rain. Mostly cloudy.5 mph77%29.86 "HgN/A
12:58 AM57 °FDrizzle. Overcast.6 mph67%29.85 "HgN/A
10:58 PM
Tue, Jul 28
59 °FOvercast.2 mph55%29.82 "HgN/A
9:58 PM63 °FPassing clouds.2 mph49%29.80 "HgN/A
8:58 PM63 °FPassing clouds.3 mph49%29.78 "HgN/A
7:58 PM64 °FMostly cloudy.7 mph43%29.77 "HgN/A
6:58 PM66 °FOvercast.10 mph40%29.77 "HgN/A
5:58 PM68 °FPartly sunny.14 mph38%29.74 "HgN/A
4:58 PM70 °FPartly sunny.10 mph38%29.75 "HgN/A
3:58 PM70 °FPartly sunny.15 mph38%29.75 "HgN/A
3:01 PM70 °FPartly sunny.13 mph38%29.78 "HgN/A
Weather by CustomWeather, © 2015

See weather overviewHow to use our weather pages